Location: La Tine
(46.4708°N, 7.0525°E)
Time: 01:13:43
(UTC+00:00)

Cosmos 1833 Rocket - Pass Details

Date: 24 January 2021
Orbit: 833 x 839 km, 71.0° (Epoch: 03 March)

Event Time Altitude Azimuth Distance (km) Brightness Sun altitude
Rises 20:09:06 0° 321° (NW) 3,390 6.5 -38.4°
Reaches altitude 10° 20:12:08 10° 305° (NW) 2,452 5.7 -38.9°
Maximum altitude 20:16:05 20° 260° (W) 1,837 4.9 -39.6°
Enters shadow 20:16:44 20° 251° (WSW) 1,856 4.9 -39.7°
